FW0562 Weather Reports


Display with metric or nautical units.
time (UTC)temp
F
wind
direction
speed
MPH
gust
MPH
rain 1hr
in
rain 24hr
in
rain mn
in
humidity
%
barometer
mb
20210916103016 67 255 1.0 7.0 0.00 0.00 0.00 71 1018.2
20210916100016 66 274 1.0 7.0 0.00 0.00 0.00 74 1018.5
20210916093019 65 307 0.0 7.0 0.00 0.00 0.00 79 1018.4
20210916090018 64 263 1.0 9.0 0.00 0.00 0.00 82 1018.3
20210916083014 62 290 1.0 5.0 0.00 0.00 0.00 88 1018.1
20210916080006 60 313 1.0 5.0 0.00 0.00 0.00 94 1018.0
20210916072955 58 321 1.0 6.0 0.00 0.00 0.00 95 1017.6
20210916065957 56 261 0.0 4.0 0.00 0.01 0.00 95 1017.5
20210916062955 56 242 0.0 5.0 0.00 0.03 0.00 95 1017.4
20210916055953 55 224 0.0 2.0 0.00 0.07 0.00 96 1017.4
20210916052944 54 237 0.0 2.0 0.00 0.14 0.00 95 1017.1
20210916045945 53 242 0.0 2.0 0.00 0.17 0.00 95 1017.0
20210916042950 52 246 0.0 2.0 0.00 0.19 0.00 95 1016.8
20210916035944 52 217 0.0 0.0 0.00 0.19 0.00 94 1016.8
20210916032933 53 217 0.0 0.0 0.00 0.20 0.00 94 1016.8
20210916025937 53 217 0.0 5.0 0.00 0.20 0.00 96 1016.8
20210916022930 51 13 0.0 0.0 0.00 0.20 0.00 95 1016.6
20210916015930 50 13 0.0 0.0 0.00 0.20 0.00 94 1016.3
20210916012931 51 13 0.0 0.0 0.00 0.21 0.00 94 1016.3
20210916005930 51 13 0.0 0.0 0.00 0.22 0.00 94 1016.1
20210916002933 51 13 0.0 0.0 0.00 0.22 0.00 94 1016.1
20210915235953 51 13 0.0 0.0 0.00 0.22 0.00 93 1016.0
20210915232924 52 13 0.0 0.0 0.00 0.22 0.00 93 1016.0
20210915225920 52 13 0.0 0.0 0.00 0.22 0.00 92 1015.8
20210915222917 53 13 0.0 0.0 0.00 0.22 0.00 92 1016.0
20210915215912 55 13 0.0 0.0 0.00 0.22 0.22 91 1015.8
20210915212912 56 13 0.0 0.0 0.00 0.22 0.22 89 1015.7
20210915205922 58 13 0.0 0.0 0.00 0.22 0.22 88 1015.8
20210915202908 60 10 0.0 4.0 0.00 0.24 0.22 85 1015.7
20210915195906 61 355 0.0 3.0 0.00 0.24 0.22 85 1015.4
20210915192907 61 299 0.0 5.0 0.00 0.24 0.22 85 1015.2
20210915185906 62 303 0.0 6.0 0.00 0.24 0.22 87 1015.0
20210915182901 62 17 1.0 6.0 0.00 0.24 0.22 86 1014.4
20210915175842 63 334 1.0 5.0 0.00 0.24 0.22 86 1013.9
20210915172841 64 160 0.0 5.0 0.00 0.24 0.22 86 1013.5
20210915165847 64 0 0.0 6.0 0.00 0.24 0.22 84 1013.4
20210915162833 65 235 0.0 6.0 0.00 0.24 0.22 84 1013.4
20210915155841 66 284 1.0 7.0 0.00 0.24 0.22 82 1013.2
20210915152840 66 278 0.0 6.0 0.00 0.24 0.22 81 1013.1
20210915145837 67 288 1.0 5.0 0.00 0.24 0.22 79 1012.7
20210915142833 67 230 0.0 6.0 0.00 0.24 0.22 82 1012.5
20210915135918 67 252 1.0 6.0 0.00 0.24 0.22 81 1012.6
20210915132821 68 339 0.0 8.0 0.00 0.24 0.22 80 1012.5
20210915125809 69 254 2.0 9.0 0.00 0.24 0.22 79 1012.1
20210915122810 68 276 0.0 5.0 0.00 0.24 0.22 83 1012.2
20210915115805 67 248 1.0 5.0 0.00 0.24 0.22 82 1012.2
20210915112808 67 330 0.0 6.0 0.00 0.24 0.22 88 1012.0
20210915105807 65 278 0.0 4.0 0.00 0.24 0.22 91 1011.7